This is the latest recevied weather packets stored in our database for station/object SV9FBP-13. If no packets are shown the sender has not sent any weather packets the latest 10 day(s).
| Time | Temp. | Humidity | Pressure | Rain* | Wind** | Luminosity | Snow |
|---|---|---|---|---|---|---|---|
| 1787995499 | 30° C | 39% | 1009.8 hPa | 0 mm | - | - | - |
| 1787994596 | 29.44° C | 40% | 1010.4 hPa | 0 mm | - | - | - |
| 1787993694 | 29.44° C | 39% | 1010.5 hPa | 0 mm | - | - | - |
| 1787992792 | 28.89° C | 41% | 1010.8 hPa | 0 mm | - | - | - |
| 1787991890 | 28.89° C | 41% | 1010.9 hPa | 0 mm | - | - | - |
| 1787990988 | 28.89° C | 40% | 1011 hPa | 0 mm | - | - | - |
| 1787990086 | 28.33° C | 41% | 1010.9 hPa | 0 mm | - | - | - |
| 1787989184 | 28.33° C | 42% | 1011.1 hPa | 0 mm | - | - | - |
| 1787988282 | 28.89° C | 40% | 1011.2 hPa | 0 mm | - | - | - |
| 1787987380 | 28.33° C | 41% | 1010.8 hPa | 0 mm | - | - | - |
| 1787986478 | 28.33° C | 38% | 1010.9 hPa | 0 mm | - | - | - |
| 1787985575 | 28.33° C | 35% | 1011 hPa | 0 mm | - | - | - |
| 1787984675 | 28.33° C | 35% | 1010.6 hPa | 0 mm | - | - | - |
| 1787983771 | 28.33° C | 37% | 1010.5 hPa | 0 mm | - | - | - |
| 1787982868 | 27.78° C | 34% | 1010.7 hPa | 0 mm | - | - | - |
| 1787981966 | 27.78° C | 34% | 1010.5 hPa | 0 mm | - | - | - |
| 1787981065 | 27.78° C | 36% | 1010.7 hPa | 0 mm | - | - | - |
| 1787980162 | 27.22° C | 41% | 1010.4 hPa | 0 mm | - | - | - |
| 1787979259 | 27.22° C | 43% | 1010.6 hPa | 0 mm | - | - | - |
| 1787978358 | 26.67° C | 44% | 1010.4 hPa | 0 mm | - | - | - |
| 1787977455 | 26.67° C | 46% | 1010.3 hPa | 0 mm | - | - | - |
| 1787976554 | 26.67° C | 50% | 1010 hPa | 0 mm | - | - | - |
| 1787975652 | 26.67° C | 50% | 1009.8 hPa | 0 mm | - | - | - |
| 1787974749 | 26.67° C | 50% | 1009.7 hPa | 0 mm | - | - | - |
| 1787973847 | 26.67° C | 53% | 1009.3 hPa | 0 mm | - | - | - |
* Rain latest hour (hover to see other rain measurements)
** Current wind speed in m/s (hover to see current wind gust speed)